Terug naar catalogus

DMSP 5D-2 F13 DEB

ActiefSSO
NORAD 42268·DEBRIS·🇺🇸 United States

Gelanceerd Mar 24, 1995 vanaf Vandenberg Space Force Base

Loading…

Volgende Passages (komende 24 uur)

TLE

VersSource: Space-Track

Epoch: Sep 14, 2026, 19:39 UTC

1 42268U 95015GJ  26257.81935659  .00002860  00000-0  15961-2 0  9990
2 42268  98.7260  93.7358 0116237  98.6726 262.7632 14.08241114579903

Volg DMSP 5D-2 F13 DEB in realtime met AllMySat

Download on the App Store